Airfield :
LOGIN :

Register | Disclaimer

   EN    FR    IT 

 










Legend :    VFR   Marginal VFR   IFR   Intensive IFR   Very Intensive IFR
Visi :
Ceiling :
>= 8 km
>= 3000ft
5 to 8 km
1000 to 3000 ft
1500m to 5 km
500 to 1000 ft
800 to 1500m
200 to 500 ft
< 800m
< 200 ft
Symbols :   Thunderstorms  Fog  Heavy snow  Heavy precipitations  Wind > 20 kt
SIGMETs :     Misc.  Thunderstorms  Icing  Turbulence  Mountain Waves  Volcanic Ashes







- Airport Elevation : 358 ft
- Download approach charts


EGTC - Cranfield

CURRENT METAR :
  • 180720Z 07008KT 9999 FEW005 BKN023 09/09 Q1013

EXPIRED METARs :
  • 180650Z 06007KT 9999 FEW005 BKN023 09/09 Q1013
  • 180620Z 06007KT 8000 SCT005 BKN024 09/09 Q1013

TAF TAF EGTC
Valid from the 18 at 06:00 until the 18 at 15:00 UTC


180656Z 1806/1815 06006KT 9999 SCT020
TEMPO 1806/1815 4000 RADZ BR
BECMG 1807/1810 BKN012
BECMG 1810/1813 BKN007
PROB40
TEMPO 1812/1815 BKN004
No reported NOTAMs for that airfield.



MET'MAP, your aeronautical weather chart ! - Copyright ORBIFLY December 2007 - Disclaimer

ORBIFLY MET'MAP TEAM :

Programming & Development : Alexandra Zaïnal
Concept & Development : Baudouin d'Aumeries
Co-Development & Prog : Marc-Olivier Méhu
Technical & hardware support : Manuel Goepfert

Contact : metmap@orbifly.com




SOURCES & CREDITS :

   NOAA